Preview of NWS' New Version of Forecast
This preview is not operational and should not be used for support decisions.

Regional Weather Roundup (RWR)

Issued by Gray - Portland, ME (GYX)

                            
847 
ASUS41 KGYX 211905
RWRGYX
WEATHER ROUNDUP FOR MAINE AND NEW HAMPSHIRE
NATIONAL WEATHER SERVICE GRAY ME
200 PM EST WED FEB 21 2018

MEZ002-005-006-010-012-015-018-020-021-024-026-027-029-212000-
MAINE
  
CITY           SKY/WX    TMP DP  RH WIND       PRES   REMARKS
PORTLAND       PTSUNNY   64  54  69 S10       30.02F                  
SANFORD        FAIR      72  57  59 SW10G16   30.03F                  
BAR HARBOR     CLOUDY    45  45 100 SW10      30.02F FOG              
WISCASSET      FAIR      58  52  80 SW7       30.02F                  
ROCKLAND       CLOUDY    52  51  97 W9        30.01F                  
FRYEBURG       FAIR      66  52  60 VRB7G16   30.00F                  
LEWISTONAUBURN FAIR      63  50  62 S7        30.00S                  
AUGUSTA        FAIR      44  43  96 S6        29.99F                  
WATERVILLE     FAIR      46  44  93 S7        29.93F                  
BANGOR         FAIR      49  45  86 S10       29.97F                  
GREENVILLE       N/A     53  47  79 SE5       29.88F                  
MILLINOCKET    FAIR      48  44  86 VRB5      29.91F                  
HOULTON        FAIR      48  45  89 SW7       29.87F                  
PRESQUE ISLE   CLOUDY    40  39  97 S8        29.87R                  
FRENCHVILLE    LGT RAIN  44  44 100 S7        29.81S VSB 3/4          
CARIBOU        CLOUDY    43  39  86 S9        29.83F                  
$$

NHZ002-005-008-009-011-012-014-212000-
NEW HAMPSHIRE
  
CITY           SKY/WX    TMP DP  RH WIND       PRES   REMARKS
PORTSMOUTH     PTSUNNY   74  55  51 SW14G21   30.02F                  
ROCHESTER      FAIR      74  56  53 VRB7      30.03F                  
MANCHESTER     PTSUNNY   74  55  51 SW12      30.04F                  
CONCORD        FAIR      72  56  57 W6G17     30.05F                  
LACONIA        FAIR      64  53  67 SW12      30.04F                  
PLYMOUTH       FAIR      62  47  58 CALM      30.04F                  
BERLIN         FAIR      67  50  54 SW15G23   29.96F                  
WHITEFIELD     FAIR      69  51  52 SW10G21   29.98F                  
JAFFREY        FAIR      68  57  68 S10       30.09F                  
KEENE          FAIR      73  55  53 SW5       30.08F                  
LEBANON        PTSUNNY   56  51  84 SW3       30.04F                  
MT WASHINGTON  FOG       46  46 100 W81G100     N/A  VSB 1/16         
$$

VTZ005-007-008-212000-
VERMONT
  
CITY           SKY/WX    TMP DP  RH WIND       PRES   REMARKS
ST JOHNSBURY     N/A     63  51  65 MISG      29.97F                  
MONTPELIER     PTSUNNY   67  53  61 W10G22    30.05F                  
BURLINGTON     LGT RAIN  58  51  78 NW12      30.08R                  
$$

MAZ007-012-024-CTZ003-RIZ002-NYZ038-NYZ072-212000-
SOUTHERN NEW ENGLAND AND NY
  
CITY           SKY/WX    TMP DP  RH WIND       PRES   REMARKS
BOSTON         PTSUNNY   71  57  61 SW12      30.10F                  
WORCESTER      FAIR      67  56  67 SW15G22   30.13F                  
NANTUCKET      FOG       46  46 100 SW14      30.24F VSB 1/4          
PROVIDENCE     PTSUNNY   62  57  83 SW13G22   30.18F                  
HARTFORD       PTSUNNY   73  57  57 S14       30.13F                  
ALBANY         PTSUNNY   70  54  56 S10       30.10R                  
NEW YORK CITY  FAIR      75  58  55 SW15G23   30.19F                  
$$

ANZ081-ANZ082-ANZ150-NHZ014-MEZ023>029-212000-
COASTAL MARINE OBSERVATIONS
  
STATION/POSITION TIME  TEMP    WIND        PRES    WAVE
                       AIR SEA DIR/SP/G            HT/PER
                 (UTC) (F)     (DEG/KT/KT) (MB)    (FT/S)
MOUNT DESERT ROC 1900   46     200/ 23/ 25 1016.7F
MATINICUS ROCK   1800   45     210/ 22/ 23 1017.0F
ISLE OF SHOALS   1800   66     210/ 22/ 23 1017.9F
JEFFREYS LEDGE   1836      42                N/A     4/14
GEORGES BANK BUO 1750   54 61              1024.1    8/10
$$

.............KEY..............
   WCI - WIND CHILL
   TC  - TEMPERATURE IN CELSIUS
   VSB - VISIBILITY IN MILES
   HX  - HEAT INDEX
   FAIR- INDICATES FEW OR NO CLOUDS BELOW 12,000 FT, WITH NO 
         SIGNIFICANT WEATHER AND/OR OBSTRUCTIONS TO VISIBILITY.